Location: Staunton
(38.1490°N, 79.0720°W)
Time: 13:52:40
(UTC-05:00)

ISS - Pass Details

Date: 12 December 2017
Orbit: 402 x 407 km, 51.6° (Epoch: 11 December)

Event Time Altitude Azimuth Distance (km) Brightness Sun altitude
Rises 17:30:17 0° 320° (NW) 2,329 0.2 -6.7°
Reaches altitude 10° 17:33:12 10° 348° (NNW) 1,465 -1.1 -7.2°
Maximum altitude 17:34:57 14° 20° (NNE) 1,265 -1.7 -7.6°
Drops below altitude 10° 17:36:42 10° 52° (NE) 1,462 -1.6 -7.9°
Enters shadow 17:36:44 10° 53° (NE) 1,469 -1.6 -7.9°
